This is the latest recevied weather packets stored in our database for station/object KD2ZLA. If no packets are shown the sender has not sent any weather packets the latest 10 day(s).
| Time | Temp. | Humidity | Pressure | Rain* | Wind** | Luminosity | Snow |
|---|---|---|---|---|---|---|---|
| 1777639274 | 5.56° C | 70% | 1013 hPa | 0 mm | - | 359 W/m² | - |
| 1777638970 | 5.56° C | 68% | 1012.9 hPa | 0 mm | - | 345 W/m² | - |
| 1777638665 | 5.56° C | 70% | 1012.7 hPa | 0 mm | - | 100 W/m² | - |
| 1777638363 | 5° C | 70% | 1012.8 hPa | 0 mm | - | 307 W/m² | - |
| 1777638058 | 5° C | 72% | 1012.8 hPa | 0 mm | - | 287 W/m² | - |
| 1777637755 | 5° C | 70% | 1012.7 hPa | 0 mm | - | 242 W/m² | - |
| 1777637451 | 5° C | 73% | 1012.7 hPa | 0 mm | - | 272 W/m² | - |
| 1777637149 | 5° C | 77% | 1013 hPa | 0 mm | - | 250 W/m² | - |
| 1777636846 | 5° C | 77% | 1012.8 hPa | 0 mm | - | 216 W/m² | - |
| 1777636541 | 4.44° C | 78% | 1012.8 hPa | 0 mm | - | 185 W/m² | - |
| 1777636238 | 4.44° C | 83% | 1012.8 hPa | 0 mm | - | 181 W/m² | - |
| 1777635937 | 3.89° C | 86% | 1012.8 hPa | 0 mm | - | 177 W/m² | - |
| 1777635633 | 3.89° C | 91% | 1012.7 hPa | 0 mm | - | 163 W/m² | - |
| 1777635331 | 3.33° C | 95% | 1012.8 hPa | 0 mm | - | 161 W/m² | - |
| 1777635027 | 3.33° C | 96% | 1012.8 hPa | 0 mm | - | 154 W/m² | - |
| 1777634723 | 2.78° C | 96% | 1012.8 hPa | 0 mm | - | 145 W/m² | - |
| 1777634421 | 2.78° C | 97% | 1012.8 hPa | 0 mm | - | 121 W/m² | - |
| 1777634118 | 2.22° C | 97% | 1012.6 hPa | 0 mm | - | 102 W/m² | - |
| 1777633814 | 2.22° C | 97% | 1012.7 hPa | 0 mm | - | 89 W/m² | - |
| 1777633512 | 1.67° C | 97% | 1012.6 hPa | 0 mm | - | 80 W/m² | - |
| 1777633210 | 1.11° C | 97% | 1012.5 hPa | 0 mm | - | 72 W/m² | - |
| 1777632907 | 1.11° C | 97% | 1012.4 hPa | 0 mm | - | 50 W/m² | - |
| 1777632603 | 0.56° C | 97% | 1012.5 hPa | 0 mm | - | 45 W/m² | - |
| 1777632300 | 0.56° C | 97% | 1012.5 hPa | 0 mm | - | 46 W/m² | - |
| 1777631996 | 0.56° C | 97% | 1012.5 hPa | 0 mm | - | 41 W/m² | - |
* Rain latest hour (hover to see other rain measurements)
** Current wind speed in m/s (hover to see current wind gust speed)